Shreveport Downtown, LA

12:32 AM CDT on May 24, 2018 (GMT -0500)
Shreveport Downtown

Weather History for KDTN - July, 2012

Change the Weather History Date:

Saturday, July 21, 2012

  Actual Average (KBAD) Record (KBAD)
Temperature  
Mean Temperature 88 °F -  
Max Temperature 99 °F 90 °F 100 °F (2016)
Min Temperature 78 °F 71 °F 64 °F (2014)
Cooling Degree Days 24    
Growing Degree Days 38 (Base 50)    
Moisture  
Dew Point 74 °F    
Average Humidity 67    
Maximum Humidity 84    
Minimum Humidity 43    
Precipitation  
Precipitation 0.00 in - - ()
Sea Level Pressure  
Sea Level Pressure 29.92 in    
Wind  
Wind Speed 9 mph (SSW)    
Max Wind Speed 16 mph    
Max Gust Speed 25 mph    
Visibility 10 miles    
Events Thunderstorm    
Averages and records for this station are not official NWS values.
T = Trace of Precipitation, MM = Missing Value Source: NWS Daily Summary

Daily Weather History Graph

Daily Weather History Graph

Search for Another Location

Airport or City:

Astronomy

Jul. 21, 2012 Rise Set
Actual Time 6:22 AM CDT 8:20 PM CDT
Civil Twilight 5:54 AM CDT 8:47 PM CDT
Nautical Twilight 5:21 AM CDT 9:20 PM CDT
Astronomical Twilight 4:45 AM CDT 9:56 PM CDT
Moon 8:51 AM CDT (7/21) 9:46 PM CDT (7/21)
Length of Visible Light 14h 52m
Length of Day
13h 57m
Waxing Crescent, 7% of the Moon is Illuminated
Jul 21
Waxing Crescent
Jul 26
First Quarter
Aug 1
Full
Aug 9
Last Quarter
Aug 17
New

Hourly Weather History & Observations

Time (CDT) Temp. Heat Index Dew Point Humidity Pressure Visibility Wind Dir Wind Speed Gust Speed Precip Events Conditions
12:53 AM 84.9 °F 94.1 °F 75.9 °F 74% 29.94 in 10.0 mi South 12.7 mph - N/A   Clear
1:53 AM 84.0 °F 91.9 °F 75.0 °F 74% 29.92 in 10.0 mi SW 16.1 mph 21.9 mph N/A   Clear
2:53 AM 82.0 °F 87.9 °F 73.9 °F 76% 29.92 in 10.0 mi SW 9.2 mph 17.3 mph N/A   Clear
3:53 AM 81.0 °F 86.2 °F 73.9 °F 79% 29.91 in 10.0 mi SW 12.7 mph - N/A   Clear
5:53 AM 80.1 °F 84.5 °F 73.9 °F 81% 29.94 in 10.0 mi SW 5.8 mph - N/A   Clear
6:53 AM 79.0 °F - 73.9 °F 84% 29.93 in 10.0 mi SW 8.1 mph - N/A   Clear
7:53 AM 81.0 °F 86.2 °F 73.9 °F 79% 29.93 in 10.0 mi SW 8.1 mph - N/A   Clear
8:53 AM 84.0 °F 91.2 °F 73.9 °F 72% 29.94 in 10.0 mi WSW 10.4 mph - N/A   Clear
9:53 AM 87.1 °F 95.4 °F 73.9 °F 65% 29.93 in 10.0 mi WSW 8.1 mph - N/A   Clear
10:53 AM 89.1 °F 97.0 °F 73.0 °F 59% 29.94 in 10.0 mi West 8.1 mph - N/A   Partly Cloudy
11:53 AM 91.9 °F 101.3 °F 73.9 °F 55% 29.93 in 10.0 mi Variable 3.5 mph - N/A   Clear
12:53 PM 95.0 °F 105.2 °F 73.9 °F 50% 29.93 in 10.0 mi Variable 4.6 mph - N/A   Clear
1:53 PM 96.1 °F 108.6 °F 75.0 °F 51% 29.91 in 10.0 mi NE 5.8 mph - N/A   Clear
2:53 PM 97.0 °F 107.0 °F 73.0 °F 46% 29.89 in 10.0 mi NNE 4.6 mph - N/A   Partly Cloudy
3:53 PM 98.1 °F 107.2 °F 72.0 °F 43% 29.87 in 10.0 mi Calm Calm - N/A   Clear
4:53 PM 96.1 °F 108.6 °F 75.0 °F 51% 29.86 in 10.0 mi East 6.9 mph - N/A   Mostly Cloudy
5:29 PM 93.2 °F 107.2 °F 77.0 °F 59% 29.88 in 10.0 mi ESE 10.4 mph - N/A Thunderstorm Thunderstorm
5:53 PM 93.0 °F 106.7 °F 77.0 °F 59% 29.87 in 10.0 mi ESE 10.4 mph - N/A Thunderstorm Thunderstorm
6:53 PM 88.0 °F 97.5 °F 75.0 °F 65% 29.90 in 10.0 mi SE 15.0 mph 25.3 mph N/A Thunderstorm Scattered Clouds
7:45 PM 82.4 °F 87.2 °F 71.6 °F 70% 29.90 in 10.0 mi South 4.6 mph - N/A   Clear
7:53 PM 82.0 °F 86.7 °F 72.0 °F 71% 29.89 in 10.0 mi WSW 6.9 mph - N/A   Clear
8:53 PM 80.1 °F 83.8 °F 72.0 °F 76% 29.91 in 10.0 mi Calm Calm - N/A   Clear
9:53 PM 79.0 °F - 71.1 °F 77% 29.93 in 10.0 mi South 5.8 mph - N/A   Clear
10:53 PM 79.0 °F - 71.1 °F 77% 29.96 in 10.0 mi Calm Calm - N/A   Clear
11:53 PM 78.1 °F - 72.0 °F 81% 29.98 in 10.0 mi South 4.6 mph - N/A   Partly Cloudy